EHI
0 0 0 0 0 0 0 0 0 0 0 0 0 0 0 0 1 0 0 2 7 11 13 17 23 24 24 27 31 31 27 23 21 18 16 14 11 9 9 11 11 9 7 7 5 4 3 3 5
0 0 0 0 0 0 0 0 0 0 0 0 0 0 0 0 1 0 0 4 11 15 13 16 23 26 26 28 31 30 26 23 20 18 16 15 13 10 9 10 11 9 7 6 5 6 5 5 5
0 0 0 0 0 0 0 0 0 0 0 0 0 0 0 0 0 0 1 7 13 15 12 15 24 29 29 29 30 27 23 20 19 17 15 14 13 11 9 10 11 10 8 6 7 8 9 8 7
0 0 0 0 0 0 0 0 0 0 0 0 1 1 0 0 1 2 5 10 14 12 10 15 24 29 30 30 28 24 20 17 16 15 14 14 14 12 11 11 12 10 9 8 8 10 11 10 9
0 0 0 0 0 0 0 0 0 0 0 1 2 2 1 1 3 5 8 12 14 11 10 16 25 29 30 29 26 22 18 16 15 14 14 15 15 15 15 14 11 10 10 9 8 10 11 10 9
0 0 0 0 0 0 0 0 0 0 0 2 4 3 2 3 7 9 11 12 12 12 12 17 25 29 29 26 24 20 17 15 15 15 14 15 15 15 15 13 9 8 9 8 7 9 10 9 8
0 0 0 0 0 0 0 0 0 0 0 2 3 2 1 4 8 12 12 12 12 12 13 16 21 24 25 24 23 20 17 14 13 13 13 13 13 11 9 8 7 6 7 7 6 7 9 8 8
0 0 0 0 0 0 0 0 0 0 0 2 2 2 2 6 12 15 15 14 14 14 14 14 15 17 18 20 22 21 19 15 12 11 12 11 9 6 4 4 6 6 6 6 6 7 8 9 8
0 0 0 0 0 0 0 0 0 1 1 1 2 5 11 18 22 21 17 14 14 15 13 12 13 13 14 17 19 20 20 17 13 10 10 10 7 4 2 2 3 4 4 4 4 6 7 7 6
0 0 0 0 1 1 0 1 2 2 2 2 5 13 25 33 31 25 17 11 11 11 11 10 11 13 14 15 15 16 15 13 10 8 7 7 5 3 2 1 1 1 1 1 2 3 5 4 2
0 0 0 0 1 1 1 2 3 3 3 4 9 22 35 39 33 24 16 10 8 8 8 9 11 12 13 13 14 13 10 7 5 5 4 4 4 3 3 2 1 0 0 0 0 1 1 1 0
0 0 0 0 1 1 1 2 3 3 4 6 15 27 37 37 31 23 16 12 11 9 8 9 12 12 11 11 12 11 8 5 4 3 3 3 3 3 3 2 1 0 0 0 0 0 0 0 0
0 0 0 0 1 1 2 3 3 4 6 11 19 29 35 34 28 21 15 14 13 12 10 10 12 12 11 11 11 10 8 6 4 3 3 3 3 3 3 2 1 0 0 0 0 0 0 0 0
0 0 1 1 1 1 2 3 4 5 8 14 20 25 29 29 24 19 16 14 13 13 12 11 11 11 11 11 10 10 9 7 4 3 3 3 3 3 2 1 0 0 0 0 0 0 0 0 0
0 0 1 1 0 1 2 3 4 7 10 14 17 20 22 23 20 19 18 16 13 13 13 12 11 9 9 9 9 9 8 8 6 5 4 3 2 1 1 0 0 0 0 0 0 0 0 0 0
0 0 1 1 0 1 2 4 5 8 11 13 14 16 17 16 17 19 19 17 15 15 14 13 11 10 8 8 8 8 8 8 7 6 6 4 2 0 0 0 0 0 0 0 0 0 0 0 0
0 0 0 0 0 0 1 3 5 7 10 11 13 13 12 11 14 17 19 18 16 16 15 12 10 9 9 8 7 8 8 8 7 7 7 6 4 1 1 0 0 0 0 0 0 0 0 0 0
0 0 0 0 0 0 1 3 5 6 7 10 12 12 11 11 13 15 16 16 14 14 13 11 9 9 10 10 8 8 9 8 7 7 7 6 5 4 2 1 1 0 0 0 0 0 0 0 0
0 0 0 0 0 0 1 3 5 4 6 9 11 12 12 13 14 15 14 13 12 12 12 12 10 10 12 12 10 10 11 10 8 7 6 5 5 5 4 3 3 1 1 0 0 0 0 0 0
0 0 0 0 0 0 2 4 4 4 4 6 8 10 10 13 16 16 14 13 12 12 13 14 14 13 13 12 11 11 11 10 9 8 5 4 4 5 5 5 5 3 2 1 0 0 0 0 0
0 0 0 0 0 0 2 3 3 3 3 3 4 6 6 10 14 15 15 14 13 12 13 15 16 16 14 12 11 11 11 10 9 8 6 4 5 5 6 7 7 5 4 3 2 1 2 1 1
0 0 0 0 0 0 1 1 2 3 3 3 3 4 5 7 11 13 13 14 13 13 13 14 15 16 16 15 14 12 11 10 9 9 7 5 5 6 7 7 7 6 6 5 5 4 3 3 2
0 0 0 0 0 0 0 0 1 3 3 2 3 4 4 7 10 12 13 13 13 13 13 14 15 16 17 18 17 15 13 11 10 9 8 5 5 5 6 6 6 6 6 6 6 5 4 3 3
0 0 0 0 0 0 0 0 1 2 2 2 3 4 4 7 11 13 13 13 13 14 14 15 15 16 17 18 17 16 15 12 10 8 6 4 2 3 3 4 5 5 5 6 6 6 5 4 4
0 0 0 0 0 0 0 0 0 2 2 1 2 4 6 9 12 14 13 13 15 16 16 15 15 16 16 16 15 14 13 11 9 7 4 2 1 1 1 1 2 2 3 3 3 4 5 4 3
0 0 0 0 0 0 0 0 1 2 2 1 2 5 9 12 14 13 12 13 15 17 17 15 14 15 16 15 14 12 10 9 8 6 5 4 2 1 0 0 0 0 1 1 1 2 3 3 2
0 0 0 0 0 0 0 0 1 2 3 1 2 5 9 13 15 13 12 12 14 15 14 13 13 14 15 14 13 11 9 8 7 6 6 5 4 1 0 0 0 0 0 0 0 1 1 1 0
0 0 0 0 0 0 0 0 1 2 3 3 3 4 8 12 15 14 11 10 10 11 11 11 10 10 11 12 12 11 9 8 6 5 5 5 4 3 1 0 0 0 0 0 0 0 0 0 0
0 0 0 0 0 0 0 1 2 2 3 5 5 6 9 12 13 12 9 6 7 8 9 9 7 6 8 10 11 11 10 8 6 4 4 4 4 3 2 1 0 0 0 0 0 0 0 0 0
0 0 0 0 0 0 0 1 2 3 4 5 6 7 9 11 12 9 6 4 5 6 8 9 6 4 6 9 11 12 11 8 6 4 3 3 3 3 3 2 1 0 0 0 0 0 0 0 0
Wind_Speed
2 2 2 2 5 5 1 2 1 1 1 1 2 4 4 3 2 2 1 7 9 8 7 9 11 12 12 12 12 12 12 12 13 13 13 12 12 12 12 12 11 11 11 10 10 10 10 11 11
2 2 2 4 5 3 3 2 1 1 2 2 3 4 4 2 2 4 4 6 10 9 6 8 11 12 12 12 12 12 12 12 12 12 12 12 12 11 11 11 10 10 10 10 10 9 9 10 10
2 1 3 5 4 3 2 2 1 0 1 1 2 3 3 2 3 5 5 9 9 8 6 7 13 13 12 12 12 12 12 12 12 12 11 11 11 11 10 10 10 9 9 9 9 9 8 8 9
2 3 4 5 1 3 4 2 1 0 1 3 3 3 2 1 3 5 9 11 9 7 6 7 13 13 12 12 12 12 11 11 11 11 11 11 10 10 9 9 9 8 8 8 8 8 8 7 7
3 4 5 3 3 4 3 3 2 1 1 2 3 3 2 3 6 10 11 11 10 7 5 6 11 12 12 12 11 11 11 10 10 10 10 9 9 10 9 8 8 8 7 7 7 7 7 7 7
4 5 4 1 4 4 3 2 1 1 2 2 3 3 1 2 7 9 9 8 7 7 5 5 11 12 11 11 11 10 10 9 9 9 9 8 8 8 9 8 7 6 6 6 7 7 6 6 6
4 4 2 2 2 3 2 1 1 2 2 2 4 4 1 2 4 8 8 7 6 5 4 3 5 7 10 10 10 9 9 8 8 8 8 8 8 8 7 7 6 6 5 5 5 5 6 6 5
4 4 1 1 2 3 2 1 0 2 2 3 5 6 5 5 8 8 7 6 6 5 4 3 3 3 4 4 8 8 8 7 7 7 7 6 6 6 6 5 5 5 5 5 5 5 5 5 5
3 5 1 3 3 3 2 1 1 1 2 2 2 4 5 12 12 10 7 5 5 5 4 3 3 3 3 3 5 6 7 6 5 4 5 4 2 2 2 3 4 4 5 4 4 4 5 5 5
4 3 5 4 4 3 2 1 2 1 1 1 2 4 11 14 13 12 10 9 8 7 6 4 4 4 4 4 3 2 2 2 2 2 2 2 2 1 2 1 3 3 4 3 4 4 4 4 2
3 5 4 3 3 2 2 2 1 4 3 6 6 10 14 13 11 11 10 9 9 7 6 5 5 4 4 2 2 1 1 2 2 2 2 2 2 1 1 1 0 1 2 1 2 2 2 2 2
2 3 3 3 1 1 2 1 1 3 6 4 7 14 15 14 12 12 11 10 7 7 6 5 5 4 4 3 2 2 2 1 1 2 2 2 2 1 1 1 1 1 1 1 1 1 2 2 2
2 3 2 2 3 1 1 1 2 3 3 3 8 11 14 13 11 9 7 7 7 7 6 5 6 5 4 3 2 3 2 2 2 2 2 2 2 2 1 1 1 1 1 1 2 2 2 2 2
2 2 3 3 2 1 0 2 0 4 1 5 8 9 11 11 10 8 7 7 7 7 7 5 6 5 4 4 3 2 2 2 2 2 2 3 2 2 2 1 1 1 1 1 2 2 2 2 2
0 2 5 3 1 1 1 4 2 3 3 6 7 7 8 8 8 9 10 9 8 8 7 6 6 5 5 4 4 3 2 2 2 2 2 2 2 3 2 2 1 1 1 2 2 3 2 2 2
2 2 2 5 2 1 3 4 5 0 4 4 5 5 6 6 7 7 7 7 7 7 6 6 6 6 5 4 3 2 2 2 2 2 2 2 3 3 3 2 2 2 2 2 2 2 2 2 2
3 1 2 5 2 1 2 4 4 0 3 3 4 5 5 5 5 5 6 6 6 6 6 6 5 6 5 4 3 2 2 2 1 2 2 2 3 3 3 2 2 2 2 2 2 2 2 2 2
3 2 2 4 3 1 1 4 5 2 3 3 4 4 5 6 7 6 6 6 5 5 5 6 5 4 4 3 2 2 1 1 1 2 2 3 3 3 3 2 2 2 2 2 2 2 2 2 2
4 3 4 6 3 0 3 4 6 3 2 3 3 4 5 5 4 4 5 6 6 6 6 6 6 5 4 3 3 2 2 2 1 1 2 3 3 3 3 2 2 2 3 3 3 2 2 1 2
3 3 4 5 2 2 3 5 5 3 5 6 6 5 5 4 3 4 5 5 7 7 6 5 5 5 5 3 3 2 2 1 1 1 1 2 3 3 4 4 3 3 2 3 3 2 2 1 2
4 6 5 4 3 1 0 4 4 4 2 3 3 4 4 6 6 5 5 6 6 6 7 6 6 5 4 3 2 2 2 1 1 0 1 1 2 3 3 3 3 3 3 3 3 4 4 3 1
5 6 6 3 1 2 0 3 6 4 4 3 3 3 3 3 4 4 5 6 6 6 6 5 5 4 4 4 4 4 3 2 2 2 1 1 1 2 2 3 3 3 3 3 3 4 3 3 3
6 3 4 3 3 0 1 2 7 3 4 5 4 4 4 4 6 6 6 6 6 5 5 5 4 4 3 4 4 4 2 2 1 1 1 1 0 1 2 2 3 3 3 3 3 3 3 3 3
3 4 4 5 4 1 4 4 6 4 6 5 4 4 4 4 5 5 5 4 4 4 4 4 4 4 3 4 4 4 4 2 2 1 2 1 1 0 1 2 2 3 2 3 3 3 4 3 3
4 5 3 4 2 5 2 3 8 6 5 4 4 4 3 4 4 5 5 5 5 5 5 5 5 4 3 4 3 3 4 4 3 3 2 2 1 1 2 2 2 2 3 3 3 3 3 4 4
3 7 7 5 5 4 1 5 7 3 3 3 1 2 2 3 3 4 5 6 6 6 6 5 5 4 4 4 4 3 3 3 2 3 2 3 2 2 2 2 2 2 3 3 3 2 3 3 3
4 3 5 5 2 1 4 5 6 3 4 4 2 1 1 3 4 4 4 5 5 5 5 6 6 5 4 4 3 3 3 3 3 3 2 2 2 2 2 2 2 2 2 3 3 2 3 3 3
5 6 5 5 4 3 4 3 4 4 4 3 2 1 1 2 2 3 3 4 4 5 4 4 4 4 4 4 4 3 3 3 2 2 3 2 2 2 2 2 2 2 2 3 3 2 2 3 2
3 3 4 4 4 5 3 6 4 4 4 3 3 2 2 2 3 3 3 3 3 3 4 4 3 3 3 3 3 3 3 2 2 3 3 3 3 2 2 2 2 2 2 2 3 3 3 3 2
4 5 6 4 3 4 3 7 3 1 2 2 2 1 0 1 2 2 3 3 3 3 3 4 4 3 3 3 2 2 2 2 2 2 2 3 2 2 2 2 2 2 2 2 3 3 3 3 3
Wind_Direction
176 120 105 72 56 49 7 290 245 336 345 8 87 96 112 117 154 173 123 137 133 140 149 154 153 147 142 136 133 131 129 127 126 126 126 125 125 124 124 123 122 121 119 118 116 115 119 124 124
132 135 69 60 77 58 300 274 270 238 187 141 75 78 82 76 80 114 133 146 139 141 145 154 155 149 144 140 137 135 134 133 131 130 129 129 128 126 125 125 124 122 120 120 117 115 115 121 125
160 128 79 71 90 165 243 260 233 331 179 124 79 68 93 135 143 155 158 143 134 139 145 161 157 152 148 146 143 141 140 137 136 135 134 133 132 130 129 127 126 124 123 122 117 114 113 115 124
110 50 53 66 49 230 225 242 199 152 21 65 107 80 69 74 155 149 137 139 136 141 147 163 158 155 152 150 148 147 145 142 141 139 138 137 135 134 134 132 132 129 125 120 118 116 111 109 117
64 73 55 34 298 269 247 238 208 172 105 74 104 100 44 27 101 126 137 143 144 146 150 162 159 158 156 154 153 151 149 147 145 144 144 144 143 142 141 142 139 135 131 127 122 118 115 117 126
58 65 74 333 296 292 278 231 160 105 103 94 105 107 55 87 120 137 139 139 142 147 150 159 163 162 162 159 157 155 153 151 149 149 149 150 149 148 146 145 140 137 131 128 127 125 123 125 130
101 93 136 213 286 302 279 297 143 137 135 168 140 115 109 143 141 134 130 125 128 137 143 151 160 163 165 163 160 156 155 154 151 150 151 155 156 155 152 149 147 143 139 136 137 135 132 133 134
125 103 95 245 232 267 280 336 191 155 182 145 134 147 191 183 139 121 112 114 127 136 149 150 146 144 149 159 164 161 158 156 154 156 157 156 158 156 155 153 152 154 157 154 148 142 138 137 138
94 81 196 224 211 255 284 350 314 61 115 118 158 174 169 140 134 127 123 129 148 158 166 163 153 146 145 154 168 161 160 158 154 155 156 147 129 127 142 162 167 166 168 161 154 146 143 140 134
96 142 226 222 205 236 283 251 209 93 105 160 96 93 123 138 147 152 159 169 176 179 179 174 167 156 146 158 141 133 145 143 139 133 145 133 123 126 136 146 172 176 172 162 155 144 141 136 119
150 198 240 257 225 220 262 283 207 148 216 214 181 151 144 150 158 166 173 177 182 180 180 177 174 162 153 148 139 129 125 131 132 129 131 129 122 107 94 84 85 131 147 125 130 124 118 126 125
183 248 237 270 277 234 225 251 287 196 230 212 163 152 154 162 172 179 181 181 174 173 184 176 171 164 161 150 148 145 145 148 148 146 141 133 131 129 123 109 81 89 106 118 103 114 117 117 127
225 273 277 270 313 272 170 231 225 263 252 136 135 148 162 170 178 183 181 175 169 179 184 180 172 169 162 150 156 154 164 172 165 154 154 149 148 153 143 122 108 111 117 132 130 129 122 119 125
229 262 300 310 317 324 140 299 119 272 153 127 142 160 170 174 177 173 172 176 179 185 183 176 174 170 157 157 158 162 170 171 158 160 165 163 161 156 148 145 142 143 146 147 148 147 137 133 133
283 345 337 330 323 276 87 337 291 276 115 131 153 166 169 177 172 177 181 182 184 184 178 175 176 168 164 164 168 165 168 163 167 173 171 166 166 163 157 158 164 165 153 142 126 120 118 134 138
41 46 326 300 318 300 121 266 292 357 124 144 159 168 171 183 183 183 178 177 176 172 171 175 175 166 168 165 163 159 158 161 166 171 174 176 172 165 161 166 180 163 145 135 127 124 122 125 132
36 83 255 297 314 70 115 248 281 220 138 155 174 179 174 177 187 183 179 176 173 169 163 163 163 163 166 158 151 148 149 161 167 167 175 182 179 169 161 171 176 149 136 133 144 123 134 139 142
216 213 248 263 286 50 234 257 275 265 180 184 191 186 182 188 199 182 173 168 156 152 153 156 153 150 148 139 129 120 124 150 171 178 183 179 178 171 164 170 164 147 140 141 138 134 122 133 143
177 195 251 265 264 237 248 262 276 267 214 213 205 198 196 202 193 160 157 156 149 148 150 157 153 152 149 154 163 162 176 188 196 198 186 180 179 173 168 171 154 153 159 165 160 146 135 127 126
180 211 255 283 285 188 247 271 269 250 220 215 209 205 205 202 168 164 158 162 164 164 164 162 162 162 165 171 173 164 157 174 185 194 174 185 177 173 177 168 166 167 161 155 156 150 145 145 143
210 201 221 241 331 23 318 305 290 278 263 254 231 210 201 200 191 183 172 176 167 168 173 173 172 166 163 150 131 112 84 66 82 149 215 210 188 180 175 172 168 171 171 177 180 172 167 171 171
237 220 203 214 141 281 139 282 282 279 298 286 254 230 212 198 184 187 183 178 178 180 170 164 163 160 154 145 146 148 155 173 202 205 203 206 188 179 173 173 171 174 180 183 191 178 177 167 177
212 202 178 192 171 250 306 215 283 304 283 275 251 226 209 195 184 187 189 185 180 169 162 159 152 150 149 152 154 155 161 181 173 149 141 153 194 186 172 172 175 180 188 192 192 175 176 178 177
151 78 59 52 79 255 233 188 274 249 242 264 249 222 204 192 186 181 174 164 159 149 150 150 150 155 155 158 160 165 170 167 150 161 171 170 171 194 174 175 189 194 197 198 198 189 182 186 180
95 94 39 1 5 251 236 192 247 251 250 243 240 218 196 176 172 172 167 164 162 162 165 160 157 164 167 164 170 178 180 178 182 186 187 178 179 204 213 191 197 200 203 199 189 188 190 186 184
164 141 157 195 220 266 266 229 250 272 288 287 242 183 154 151 167 170 171 171 173 171 169 166 170 175 176 175 183 182 178 182 195 194 188 189 199 213 205 199 198 200 197 190 178 182 192 185 192
140 171 166 141 173 247 270 280 299 328 351 7 36 81 181 177 172 174 172 169 168 167 174 176 177 176 181 184 181 179 182 185 193 194 188 189 196 197 185 189 197 202 195 186 174 180 189 184 197
138 145 107 126 160 241 280 274 265 294 298 314 327 253 240 199 172 172 170 171 166 166 166 162 169 177 180 179 180 178 188 194 191 179 186 192 195 188 174 175 183 192 192 184 179 183 188 187 204
102 108 117 132 160 168 243 266 241 241 258 263 269 234 208 205 194 181 176 165 149 140 151 155 165 162 166 176 174 169 184 189 186 195 200 195 190 183 182 187 189 194 199 192 184 191 187 191 202
152 159 144 154 211 178 193 261 282 268 273 260 284 309 184 185 171 162 158 145 137 144 153 163 169 173 179 177 170 176 175 171 181 201 196 181 180 184 185 185 182 188 196 190 187 192 188 191 198